[[{"header":{"parameterUnit":"m.s-1","parameterCategory":1,"la1":30.2991,"la2":30.254,"lo1":-89.0895,"lo2":-89.0444,"dy":0.0017,"dx":0.0017,"nx":28,"ny":28,"refTime":"2025-01-20T09:00:00:Z","depth":0,"parameterNumber":2,"parameterNumberName":"U-component_of_WINDS"},"data":[0,0,0,0,0,0,0,0,0,0,0,0,0,0,0,0,0,0,0,0,0,0,0,0,0,0,0,0,0,0,0,0,0,0,0,0,0,0,0,0,0,0,0,0,0,0,0,0,0,0,0,0,0,0,0,0,0,0,-0.2569,-0.2569,0,-0.2599,-0.26,-0.26,-0.2562,-0.256,-0.2559,-0.2558,-0.2592,-0.2594,-0.2596,0,0,0,0,0,0,0,0,0,0,0,0,0,-0.2479,-0.2481,-0.2569,-0.2569,-0.257,-0.2599,-0.26,-0.26,-0.2562,-0.256,-0.2559,-0.2557,-0.2591,-0.2594,-0.2596,0,0,0,0,0,0,0,0,0,0,0,0,0,-0.2515,-0.2481,-0.2569,-0.2554,-0.2553,-0.2599,-0.26,-0.26,-0.2562,-0.256,-0.2558,-0.2556,-0.259,-0.2593,-0.2597,-0.266,0,0,-0.2607,-0.2608,0,0,0,0,0,0,0,0,-0.2513,-0.2518,-0.2556,-0.2555,-0.2554,-0.2575,-0.2581,-0.262,-0.2563,-0.2559,-0.2558,-0.2555,-0.2588,-0.2591,-0.2602,-0.2662,-0.2663,-0.2607,-0.2609,-0.2611,-0.2612,0,0,0,0,0,0,0,-0.251,-0.2516,-0.2581,-0.2556,-0.2555,-0.2546,-0.2549,-0.2588,-0.2585,-0.2559,-0.2556,-0.256,-0.2587,-0.2599,-0.2602,-0.2664,-0.2607,-0.261,-0.2612,-0.2614,-0.2776,-0.2778,0,0,0,0,0,0,-0.2509,-0.2515,-0.258,-0.2582,-0.2528,-0.255,-0.2553,-0.257,-0.2585,-0.2585,-0.2562,-0.2558,-0.2594,-0.2599,-0.2604,-0.2679,-0.2611,-0.2614,-0.2616,-0.2774,-0.2777,-0.2779,0,0,0,0,0,0,-0.2507,-0.2515,-0.2579,-0.2548,-0.2555,-0.2554,-0.2573,-0.2572,-0.2584,-0.2587,-0.2586,-0.2575,-0.2593,-0.2599,-0.2646,-0.268,-0.2615,-0.2618,-0.2771,-0.2775,-0.2778,-0.283,0,0,0,0,0,0,-0.2505,-0.2515,-0.2539,-0.2548,-0.2557,-0.2621,-0.2575,-0.2574,-0.2589,-0.2585,-0.2598,-0.2599,-0.2591,-0.2641,-0.2649,-0.2683,-0.2621,-0.2768,-0.2773,-0.2777,-0.2825,-0.2835,-0.2843,0,0,0,0,0,-0.2502,-0.2553,-0.254,-0.2548,-0.2586,-0.2623,-0.2627,-0.2617,-0.2592,-0.2616,-0.2618,-0.2598,-0.2674,-0.2646,-0.2655,-0.269,-0.2766,-0.2772,-0.2777,-0.2822,-0.2833,-0.2843,0,0,0,0,0,0,-0.2549,-0.2554,-0.254,-0.2595,-0.2609,-0.2616,-0.2646,-0.263,-0.2652,-0.2647,-0.2634,-0.2637,-0.2688,-0.2693,-0.2662,-0.2752,-0.2716,-0.2723,-0.2747,-0.2758,-0.2767,-0.2765,-0.2624,0,0,0,0,0,-0.2565,-0.2593,-0.2597,-0.2645,-0.2652,-0.2648,-0.2664,-0.2654,-0.2668,-0.2674,-0.2679,-0.2694,-0.2721,-0.2739,-0.2765,-0.2825,-0.2828,-0.2853,-0.2862,-0.2869,-0.2877,-0.2909,-0.2921,-0.2796,-0.2796,-0.2796,0,0,-0.26,-0.2606,-0.2625,-0.2655,-0.2664,-0.2694,-0.2653,-0.2687,-0.271,-0.2679,-0.2725,-0.2729,-0.2744,-0.2798,-0.2822,-0.2805,-0.2911,-0.2876,-0.2882,-0.2885,-0.2916,-0.2928,-0.2938,-0.28,-0.2799,-0.2799,0,0,-0.268,-0.2687,-0.2728,-0.2738,-0.2752,-0.2748,-0.2758,-0.2768,-0.2769,-0.2814,-0.2791,-0.2818,-0.2865,-0.2877,-0.2889,-0.2971,-0.2954,-0.2979,-0.3026,-0.3058,-0.3068,-0.3077,-0.3107,-0.3118,-0.2986,-0.2986,-0.2986,0,-0.2722,-0.2766,-0.2752,-0.2787,-0.2801,-0.2773,-0.2815,-0.2825,-0.2847,-0.2858,-0.2837,-0.2894,-0.2903,-0.296,-0.2979,-0.299,-0.3001,-0.2979,-0.3068,-0.3076,-0.3084,-0.3113,-0.3125,-0.2989,-0.2989,-0.2988,-0.2988,0,-0.2818,-0.2849,-0.2881,-0.2902,-0.2918,-0.2957,-0.2949,-0.2968,-0.2957,-0.2956,-0.3001,-0.301,-0.3036,-0.3048,-0.3038,-0.3104,-0.3092,-0.307,-0.3034,-0.31,-0.3127,-0.3138,-0.2994,-0.2992,-0.2992,-0.2991,0,0,-0.2931,-0.2942,-0.2954,-0.2963,-0.2975,-0.2999,-0.3036,-0.3061,-0.3078,-0.3093,-0.3124,-0.3163,-0.3142,-0.3156,-0.3147,-0.3174,-0.324,-0.3149,-0.3149,-0.3167,-0.3314,-0.3332,-0.3345,-0.3227,-0.3229,-0.3231,-0.3313,0,-0.3012,-0.3076,-0.3063,-0.3126,-0.3154,-0.3127,-0.3159,-0.317,-0.317,-0.3194,-0.3193,-0.3222,-0.3191,-0.3199,-0.3225,-0.3227,-0.327,-0.322,-0.3258,-0.326,-0.3258,-0.3359,-0.3379,-0.3456,-0.3323,-0.3325,-0.3326,0,-0.3116,-0.3134,-0.3199,-0.3206,-0.3218,-0.3247,-0.3268,-0.3291,-0.3304,-0.3301,-0.3315,-0.33,-0.3337,-0.3298,-0.335,-0.3317,-0.3331,-0.3333,-0.3336,-0.3341,-0.3299,-0.3369,-0.3481,-0.3493,-0.3343,-0.3341,-0.334,0,-0.3193,-0.3234,-0.3278,-0.3286,-0.3296,-0.3317,-0.3322,-0.3331,-0.3347,-0.3365,-0.3375,-0.3398,-0.3411,-0.3429,-0.342,-0.3392,-0.3473,-0.3434,-0.3473,-0.3474,-0.3494,-0.3494,-0.3612,-0.35,-0.35,-0.3499,-0.3499,0,-0.3287,-0.3328,-0.3313,-0.3341,-0.3386,-0.3371,-0.3417,-0.3418,-0.3427,-0.3454,-0.3431,-0.3458,-0.3444,-0.3469,-0.3462,-0.3507,-0.3512,-0.3512,-0.351,-0.3515,-0.3516,-0.3527,-0.3522,-0.3502,-0.3502,-0.3501,-0.3501,0,-0.3383,-0.3374,-0.3421,-0.3425,-0.3426,-0.346,-0.3464,-0.349,-0.3486,-0.3521,-0.3529,-0.3524,-0.3552,-0.3544,-0.3576,-0.3571,-0.3628,-0.3618,-0.3624,-0.3622,-0.3663,-0.366,-0.3794,-0.3811,-0.3686,-0.3688,-0.3689,0,-0.3444,-0.3475,-0.3481,-0.3498,-0.3504,-0.3531,-0.3546,-0.3531,-0.3548,-0.3563,-0.3587,-0.3614,-0.3634,-0.3681,-0.3681,-0.3705,-0.3697,-0.3742,-0.3701,-0.3705,-0.37,-0.3699,-0.3702,-0.3751,-0.3753,-0.3754,-0.3755,0,-0.3554,-0.3548,-0.357,-0.3591,-0.3609,-0.3625,-0.3639,-0.3653,-0.3639,-0.3659,-0.3688,-0.3704,-0.3735,-0.3762,-0.3783,-0.3788,-0.377,-0.3767,-0.3778,-0.3785,-0.3788,-0.3789,-0.3649,-0.3765,-0.3764,-0.3763,-0.3763,-0.3762,-0.3636,-0.3662,-0.3671,-0.3696,-0.3704,-0.3717,-0.3742,-0.374,-0.3764,-0.3788,-0.3777,-0.381,-0.382,-0.3847,-0.3855,-0.3881,-0.3864,-0.3879,-0.3883,-0.3888,-0.3894,-0.3781,-0.3884,-0.3884,-0.3884,-0.3883,-0.3883,0,-0.3746,-0.375,-0.3773,-0.3792,-0.3812,-0.379,-0.3804,-0.3823,-0.3852,-0.3862,-0.3882,-0.3915,-0.3941,-0.3941,-0.3965,-0.3986,-0.3978,-0.3993,-0.3992,-0.3994,-0.3907,-0.3896,-0.3999,-0.3998,-0.3998,-0.3998,-0.3998,-0.3998,-0.3806,-0.385,-0.3844,-0.3892,-0.3895,-0.3927,-0.3936,-0.3948,-0.3956,-0.3994,-0.4014,-0.4014,-0.402,-0.4044,-0.4067,-0.4066,-0.4077,-0.4095,-0.4092,-0.4011,-0.4,-0.3989,-0.3979,-0.4097,-0.4097,-0.4177,-0.4178,-0.4178]},{"header":{"parameterUnit":"m.s-1","parameterCategory":1,"la1":30.2991,"la2":30.254,"lo1":-89.0895,"lo2":-89.0444,"dy":0.0017,"dx":0.0017,"nx":28,"ny":28,"refTime":"2025-01-20T09:00:00:Z","depth":0,"parameterNumber":3,"parameterNumberName":"V-component_of_WINDS"},"data":[0,0,0,0,0,0,0,0,0,0,0,0,0,0,0,0,0,0,0,0,0,0,0,0,0,0,0,0,0,0,0,0,0,0,0,0,0,0,0,0,0,0,0,0,0,0,0,0,0,0,0,0,0,0,0,0,0,0,-7.4429,-7.4431,0,-7.4578,-7.458,-7.4581,-7.449,-7.4485,-7.4481,-7.4477,-7.4624,-7.4631,-7.4639,0,0,0,0,0,0,0,0,0,0,0,0,0,-7.4061,-7.4068,-7.4429,-7.4431,-7.4433,-7.4578,-7.458,-7.4582,-7.449,-7.4485,-7.448,-7.4475,-7.4621,-7.4631,-7.464,0,0,0,0,0,0,0,0,0,0,0,0,0,-7.4216,-7.407,-7.4429,-7.4405,-7.4404,-7.4577,-7.458,-7.4582,-7.4491,-7.4485,-7.4478,-7.4472,-7.4618,-7.463,-7.4641,-7.4845,0,0,-7.4678,-7.4683,0,0,0,0,0,0,0,0,-7.4208,-7.423,-7.4407,-7.4407,-7.4406,-7.4509,-7.4504,-7.467,-7.4493,-7.4458,-7.4477,-7.4469,-7.459,-7.4604,-7.4646,-7.4852,-7.4858,-7.4679,-7.4686,-7.4691,-7.4695,0,0,0,0,0,0,0,-7.4197,-7.4223,-7.4488,-7.4409,-7.4409,-7.4385,-7.44,-7.4535,-7.4559,-7.4461,-7.4455,-7.4474,-7.4589,-7.4635,-7.4649,-7.486,-7.4678,-7.4689,-7.4696,-7.4701,-7.5239,-7.5245,0,0,0,0,0,0,-7.4189,-7.4215,-7.4483,-7.4492,-7.4289,-7.4397,-7.4414,-7.4482,-7.4557,-7.4562,-7.4479,-7.4469,-7.4618,-7.4635,-7.4654,-7.4896,-7.4691,-7.4702,-7.4709,-7.5231,-7.524,-7.5248,0,0,0,0,0,0,-7.4181,-7.4214,-7.4477,-7.4352,-7.4384,-7.441,-7.4488,-7.4489,-7.4534,-7.4571,-7.4574,-7.4522,-7.4613,-7.4637,-7.4798,-7.49,-7.4708,-7.4718,-7.5223,-7.5234,-7.5244,-7.5384,0,0,0,0,0,0,-7.4171,-7.4211,-7.429,-7.4354,-7.4391,-7.4621,-7.4494,-7.4496,-7.4556,-7.4544,-7.4612,-7.4617,-7.461,-7.4781,-7.481,-7.4913,-7.4728,-7.5214,-7.5228,-7.5241,-7.537,-7.5398,-7.5422,0,0,0,0,0,-7.4158,-7.4323,-7.4295,-7.4328,-7.449,-7.4627,-7.4648,-7.4638,-7.4565,-7.4643,-7.4666,-7.4615,-7.4884,-7.4798,-7.483,-7.4938,-7.5208,-7.5224,-7.524,-7.5359,-7.5393,-7.5421,0,0,0,0,0,0,-7.4268,-7.4331,-7.43,-7.4491,-7.4555,-7.4612,-7.4711,-7.4674,-7.4759,-7.4744,-7.4727,-7.4743,-7.4911,-7.494,-7.4843,-7.5139,-7.5034,-7.5057,-7.5114,-7.5146,-7.5171,-7.5161,-7.4738,0,0,0,0,0,-7.4315,-7.4423,-7.4471,-7.4634,-7.4668,-7.4684,-7.4744,-7.4731,-7.4795,-7.4821,-7.4856,-7.4919,-7.5018,-7.5083,-7.5176,-7.5374,-7.5387,-7.5464,-7.549,-7.5511,-7.5531,-7.5637,-7.5671,-7.5301,-7.53,-7.53,0,0,-7.4412,-7.4459,-7.4528,-7.4658,-7.4705,-7.4816,-7.4707,-7.4829,-7.491,-7.4839,-7.4994,-7.5022,-7.5091,-7.5271,-7.5352,-7.5301,-7.5636,-7.5531,-7.5548,-7.5556,-7.5657,-7.5692,-7.5723,-7.5311,-7.5309,-7.5308,0,0,-7.4645,-7.4693,-7.4834,-7.4885,-7.4959,-7.4969,-7.5003,-7.5066,-7.5082,-7.5238,-7.5186,-7.5282,-7.5452,-7.5504,-7.5552,-7.5805,-7.5761,-7.5836,-7.5971,-7.6074,-7.6103,-7.6129,-7.6219,-7.6252,-7.5856,-7.5856,-7.5856,0,-7.4756,-7.4923,-7.4911,-7.5037,-7.5095,-7.5037,-7.5179,-7.5228,-7.5329,-7.5369,-7.531,-7.5524,-7.5566,-7.5757,-7.5819,-7.586,-7.5897,-7.5828,-7.61,-7.6126,-7.615,-7.6235,-7.6269,-7.5865,-7.5864,-7.5863,-7.5862,0,-7.5055,-7.5171,-7.5276,-7.5377,-7.5446,-7.558,-7.5586,-7.5658,-7.5639,-7.5654,-7.5812,-7.5861,-7.5963,-7.6007,-7.5989,-7.6196,-7.6162,-7.6103,-7.5997,-7.6194,-7.6274,-7.6307,-7.5877,-7.5874,-7.5872,-7.5869,0,0,-7.5363,-7.5455,-7.5494,-7.5539,-7.5617,-7.5705,-7.5835,-7.5937,-7.5998,-7.6069,-7.6177,-7.6323,-7.6268,-7.6323,-7.631,-7.6401,-7.6598,-7.633,-7.6331,-7.6378,-7.6828,-7.6873,-7.6911,-7.6569,-7.6575,-7.658,-7.6822,0,-7.5601,-7.5831,-7.5823,-7.6036,-7.6143,-7.6089,-7.6202,-7.6261,-7.6279,-7.637,-7.6388,-7.6492,-7.6413,-7.6446,-7.6533,-7.6556,-7.6688,-7.6538,-7.6667,-7.6672,-7.6652,-7.6953,-7.7001,-7.7227,-7.6854,-7.6859,-7.6863,0,-7.591,-7.5994,-7.6218,-7.628,-7.6324,-7.6427,-7.6519,-7.6607,-7.6672,-7.6678,-7.6741,-7.6713,-7.6843,-7.6734,-7.6912,-7.681,-7.6862,-7.6881,-7.6889,-7.6901,-7.678,-7.6973,-7.73,-7.7334,-7.6912,-7.6908,-7.6904,0,-7.6112,-7.628,-7.6436,-7.6476,-7.6552,-7.6625,-7.666,-7.6719,-7.678,-7.686,-7.6899,-7.6992,-7.7043,-7.7115,-7.7112,-7.7034,-7.7293,-7.7184,-7.73,-7.7301,-7.7358,-7.7354,-7.7698,-7.7392,-7.7391,-7.739,-7.739,0,-7.6379,-7.6518,-7.6528,-7.6624,-7.6778,-7.6767,-7.6919,-7.6946,-7.6999,-7.7098,-7.7056,-7.7149,-7.714,-7.7234,-7.7232,-7.738,-7.7403,-7.741,-7.7408,-7.7415,-7.7414,-7.7449,-7.7433,-7.7399,-7.7397,-7.7396,-7.7394,0,-7.6631,-7.6643,-7.6809,-7.6868,-7.6886,-7.6997,-7.7047,-7.7137,-7.7151,-7.7276,-7.7305,-7.7326,-7.7434,-7.7439,-7.7562,-7.7561,-7.7741,-7.7721,-7.772,-7.7716,-7.7832,-7.7822,-7.821,-7.8261,-7.7922,-7.7925,-7.7928,0,-7.6801,-7.6907,-7.6978,-7.7042,-7.7082,-7.7186,-7.7248,-7.7241,-7.7308,-7.739,-7.747,-7.7575,-7.7658,-7.7832,-7.7858,-7.7952,-7.7934,-7.8063,-7.7947,-7.795,-7.7936,-7.793,-7.794,-7.8086,-7.809,-7.8093,-7.8095,0,-7.7101,-7.7102,-7.7195,-7.7291,-7.7367,-7.7442,-7.7511,-7.7565,-7.7566,-7.7643,-7.7754,-7.7818,-7.7945,-7.8049,-7.8141,-7.8173,-7.8135,-7.8132,-7.8164,-7.8171,-7.8166,-7.8171,-7.7781,-7.8123,-7.812,-7.8118,-7.8117,-7.8116,-7.7317,-7.7409,-7.7474,-7.7578,-7.763,-7.7696,-7.7783,-7.7809,-7.7902,-7.8006,-7.7995,-7.8119,-7.8179,-7.8299,-7.834,-7.8434,-7.839,-7.8436,-7.8448,-7.8459,-7.8472,-7.8151,-7.8451,-7.845,-7.8449,-7.8449,-7.8448,0,-7.7615,-7.7654,-7.7751,-7.785,-7.7932,-7.789,-7.7964,-7.8035,-7.8145,-7.8206,-7.8289,-7.8416,-7.8517,-7.855,-7.8647,-7.8716,-7.8701,-7.8742,-7.8737,-7.8745,-7.8506,-7.8469,-7.8753,-7.8753,-7.8753,-7.8753,-7.8752,-7.8752,-7.778,-7.7933,-7.7942,-7.812,-7.8157,-7.8279,-7.8325,-7.8384,-7.8433,-7.8578,-7.8662,-7.8683,-7.8733,-7.8833,-7.8923,-7.8929,-7.8967,-7.9016,-7.9015,-7.8792,-7.8762,-7.8732,-7.8697,-7.9024,-7.9024,-7.9246,-7.9248,-7.9249]}]]